Tracking 26006 objects as of 17-Aug-2022
HD Live streaming from Space Station
objects crossing your sky now

RESURS O1 DEB

Track RESURS O1 DEB now!
10-day predictions


NORAD ID: 48499
Int'l Code: 1994-074EA
Perigee: 589.3 km
Apogee: 591.3 km
Inclination: 97.9 °
Period: 96.3 minutes
Semi major axis: 6961 km
RCS: Unknown
Launch date: November 4, 1994
Source: Commonwealth of Independent States (former USSR) (CIS)
Launch site: TYURATAM MISSILE AND SPACE COMPLEX (TTMTR)

Note: This is SATELLITE DEBRIS
aabbcc
Your satellite tracking list
Your tracking list is empty




NASA's NSSDC Master Catalog

Two Line Element Set (TLE):
1 48499U 94074EA  22227.95577619  .00016188  00000-0  14926-2 0  9990
2 48499  97.8961 279.1691 0001432 291.2453  68.8613 14.94750021 78489
Source of the keplerian elements: AFSPC